[[{"header":{"parameterUnit":"m.s-1","parameterCategory":1,"la1":30.2991,"la2":30.254,"lo1":-89.0895,"lo2":-89.0444,"dy":0.0017,"dx":0.0017,"nx":28,"ny":28,"refTime":"2024-05-26T09:00:00:Z","depth":0,"parameterNumber":2,"parameterNumberName":"U-component_of_WINDS"},"data":[0,0,0,0,0,0,0,0,0,0,0,0,0,0,0,0,0,0,0,0,0,0,0,0,0,0,0,0,0,0,0,0,0,0,0,0,0,0,0,0,0,0,0,0,0,0,0,0,0,0,0,0,0,0,0,0,0,0,-1.0004,-1.0005,0,-1.0072,-1.0073,-1.0074,-1.0126,-1.0127,-1.0127,-1.0128,-1.0195,-1.0197,-1.0198,0,0,0,0,0,0,0,0,0,0,0,0,0,-0.992,-0.9921,-1.0004,-1.0005,-1.0006,-1.0072,-1.0073,-1.0074,-1.0126,-1.0127,-1.0128,-1.0128,-1.0195,-1.0197,-1.0198,0,0,0,0,0,0,0,0,0,0,0,0,0,-0.9969,-0.9921,-1.0004,-1.004,-1.0044,-1.0072,-1.0073,-1.0074,-1.0126,-1.0127,-1.0128,-1.0128,-1.0195,-1.0196,-1.0198,-1.0195,0,0,-1.0204,-1.0205,0,0,0,0,0,0,0,0,-0.9966,-0.9972,-1.0034,-1.0038,-1.0042,-1.0092,-1.0068,-1.0115,-1.0126,-1.0095,-1.0128,-1.0129,-1.016,-1.0165,-1.0176,-1.0198,-1.0201,-1.0205,-1.0206,-1.0207,-1.0207,0,0,0,0,0,0,0,-0.9963,-0.9969,-1.0031,-1.0035,-1.004,-1.0053,-1.0061,-1.0077,-1.0122,-1.0098,-1.0102,-1.0109,-1.0163,-1.0174,-1.0178,-1.0202,-1.0205,-1.0206,-1.0208,-1.0208,-1.0228,-1.0227,0,0,0,0,0,0,-0.9954,-0.9966,-1.0029,-1.0033,-1.0005,-1.0054,-1.0062,-1.0075,-1.0122,-1.013,-1.0108,-1.0111,-1.017,-1.0176,-1.0181,-1.0181,-1.0207,-1.0209,-1.021,-1.0228,-1.0228,-1.0227,0,0,0,0,0,0,-0.9952,-0.9959,-1.0026,-1.0001,-1.001,-1.0054,-1.0068,-1.0076,-1.0087,-1.013,-1.0139,-1.0112,-1.0171,-1.0178,-1.0192,-1.0184,-1.0209,-1.0211,-1.0229,-1.0228,-1.0227,-1.0182,0,0,0,0,0,0,-0.9949,-0.9958,-0.9957,-1.0,-1.0011,-1.0036,-1.0067,-1.0077,-1.0091,-1.0095,-1.0136,-1.0143,-1.0172,-1.0189,-1.0194,-1.0188,-1.0213,-1.023,-1.0229,-1.0228,-1.0184,-1.0179,-1.0175,0,0,0,0,0,-0.9946,-0.994,-0.9956,-0.9964,-1.0011,-1.0035,-1.0042,-1.0076,-1.009,-1.009,-1.0118,-1.0142,-1.0184,-1.019,-1.0196,-1.019,-1.0231,-1.0229,-1.0228,-1.0186,-1.018,-1.0175,0,0,0,0,0,0,-0.9894,-0.9947,-0.9965,-0.9974,-1.0,-1.0044,-1.0045,-1.0068,-1.009,-1.0093,-1.0134,-1.0143,-1.0153,-1.0173,-1.0178,-1.0191,-1.0211,-1.021,-1.0177,-1.0172,-1.0168,-1.0162,-1.0214,0,0,0,0,0,-0.9883,-0.9899,-0.9944,-0.9947,-0.996,-1.0,-1.0012,-1.0036,-1.0064,-1.0075,-1.0104,-1.0131,-1.0151,-1.0162,-1.0183,-1.0188,-1.0198,-1.0187,-1.0182,-1.0179,-1.0178,-1.0184,-1.018,-1.0222,-1.0222,-1.0222,0,0,-0.9862,-0.9893,-0.99,-0.9938,-0.9961,-0.9976,-1.0009,-1.0023,-1.0035,-1.0077,-1.0093,-1.0115,-1.0148,-1.0158,-1.0163,-1.0175,-1.0169,-1.0177,-1.0173,-1.0175,-1.0182,-1.0178,-1.0174,-1.0221,-1.0221,-1.0221,0,0,-0.983,-0.9855,-0.9861,-0.9884,-0.992,-0.9947,-0.9948,-0.999,-1.0007,-1.0023,-1.0056,-1.0071,-1.0103,-1.0125,-1.0141,-1.0121,-1.0144,-1.0126,-1.0102,-1.0108,-1.0104,-1.0102,-1.0095,-1.0093,-1.0125,-1.0125,-1.0125,0,-0.9799,-0.9824,-0.9861,-0.9875,-0.9891,-0.9931,-0.9938,-0.9959,-0.9998,-1.0009,-1.0021,-1.0064,-1.0088,-1.0105,-1.01,-1.0111,-1.0115,-1.0121,-1.0102,-1.01,-1.0098,-1.0092,-1.0089,-1.0123,-1.0123,-1.0123,-1.0123,0,-0.9784,-0.9801,-0.9802,-0.984,-0.9857,-0.9866,-0.9906,-0.9918,-0.9941,-0.9967,-0.9984,-1.0016,-1.0044,-1.0049,-1.0071,-1.007,-1.0076,-1.0094,-1.0115,-1.0091,-1.0086,-1.0084,-1.0119,-1.012,-1.0121,-1.0121,0,0,-0.972,-0.9781,-0.9781,-0.98,-0.9843,-0.9857,-0.9869,-0.9897,-0.9908,-0.9934,-0.9946,-0.9973,-0.9992,-1.0009,-1.0034,-1.0039,-1.0023,-1.0057,-1.0059,-1.005,-1.0024,-1.001,-1.0007,-1.0039,-1.0038,-1.0038,-1.0021,0,-0.9696,-0.9721,-0.9756,-0.977,-0.9786,-0.9826,-0.9837,-0.9865,-0.989,-0.9907,-0.9935,-0.9955,-0.9976,-0.9988,-0.9994,-1.0023,-1.0018,-1.0025,-1.005,-1.0051,-1.0041,-1.0004,-0.9989,-0.9972,-1.002,-1.002,-1.0019,0,-0.9671,-0.9697,-0.9712,-0.9756,-0.9764,-0.9773,-0.9803,-0.982,-0.9852,-0.987,-0.9891,-0.9919,-0.9935,-0.9954,-0.9976,-0.998,-0.9993,-1.0009,-1.0009,-1.0013,-1.0033,-1.0007,-0.9967,-0.9964,-1.0017,-1.0017,-1.0017,0,-0.9625,-0.9663,-0.9678,-0.9692,-0.9743,-0.9749,-0.977,-0.9804,-0.9819,-0.9845,-0.9856,-0.9883,-0.9898,-0.9919,-0.9954,-0.9964,-0.9973,-0.9995,-0.9989,-0.9988,-0.9988,-0.9988,-0.995,-0.9996,-0.9996,-0.9996,-0.9996,0,-0.9595,-0.9602,-0.9658,-0.9667,-0.9677,-0.9718,-0.9727,-0.9752,-0.9782,-0.9797,-0.9832,-0.9845,-0.989,-0.9909,-0.9936,-0.9952,-0.9958,-0.9973,-0.998,-0.997,-0.9968,-0.9979,-0.9981,-0.9995,-0.9995,-0.9995,-0.9996,0,-0.9544,-0.9581,-0.96,-0.9647,-0.9659,-0.9665,-0.9705,-0.9716,-0.9744,-0.9762,-0.9769,-0.9812,-0.9836,-0.9873,-0.9907,-0.9926,-0.9937,-0.9948,-0.9926,-0.993,-0.9923,-0.9923,-0.9891,-0.9889,-0.9935,-0.9934,-0.9934,0,-0.9522,-0.953,-0.9578,-0.9591,-0.9612,-0.9632,-0.9648,-0.9689,-0.9705,-0.9744,-0.975,-0.9777,-0.98,-0.9837,-0.9871,-0.9898,-0.9911,-0.9898,-0.9915,-0.9905,-0.9912,-0.9911,-0.9913,-0.9894,-0.9893,-0.9892,-0.9892,0,-0.9481,-0.9499,-0.9522,-0.9552,-0.9571,-0.9596,-0.9623,-0.9632,-0.9678,-0.9694,-0.972,-0.9738,-0.9775,-0.9801,-0.9833,-0.9855,-0.9882,-0.9886,-0.9887,-0.9876,-0.9864,-0.9871,-0.9915,-0.9887,-0.9887,-0.9888,-0.9888,-0.9888,-0.9445,-0.9454,-0.949,-0.9515,-0.954,-0.9564,-0.9577,-0.9607,-0.9629,-0.9663,-0.9685,-0.971,-0.9744,-0.979,-0.9811,-0.9831,-0.9842,-0.9842,-0.9842,-0.9842,-0.9838,-0.986,-0.9837,-0.9837,-0.9837,-0.9837,-0.9837,0,-0.9406,-0.9431,-0.9454,-0.9491,-0.9511,-0.9535,-0.9566,-0.9581,-0.9603,-0.9632,-0.9656,-0.9686,-0.9712,-0.9749,-0.9779,-0.9788,-0.98,-0.9794,-0.9794,-0.9799,-0.9826,-0.9823,-0.9783,-0.9783,-0.9783,-0.9783,-0.9783,-0.9783,-0.9388,-0.9405,-0.9428,-0.9458,-0.9484,-0.9509,-0.9525,-0.9548,-0.9573,-0.9605,-0.9627,-0.9652,-0.9685,-0.9718,-0.9743,-0.9754,-0.9763,-0.9753,-0.9767,-0.9792,-0.9797,-0.9801,-0.9799,-0.9754,-0.9754,-0.9738,-0.9738,-0.9738]},{"header":{"parameterUnit":"m.s-1","parameterCategory":1,"la1":30.2991,"la2":30.254,"lo1":-89.0895,"lo2":-89.0444,"dy":0.0017,"dx":0.0017,"nx":28,"ny":28,"refTime":"2024-05-26T09:00:00:Z","depth":0,"parameterNumber":3,"parameterNumberName":"V-component_of_WINDS"},"data":[0,0,0,0,0,0,0,0,0,0,0,0,0,0,0,0,0,0,0,0,0,0,0,0,0,0,0,0,0,0,0,0,0,0,0,0,0,0,0,0,0,0,0,0,0,0,0,0,0,0,0,0,0,0,0,0,0,0,7.0322,7.0322,0,7.0346,7.0346,7.0346,7.0301,7.03,7.0298,7.0297,7.0318,7.032,7.0322,0,0,0,0,0,0,0,0,0,0,0,0,0,7.0235,7.0236,7.0322,7.0322,7.0322,7.0346,7.0346,7.0346,7.0301,7.03,7.0298,7.0296,7.0318,7.032,7.0322,0,0,0,0,0,0,0,0,0,0,0,0,0,7.0267,7.0237,7.0322,7.0303,7.0302,7.0346,7.0346,7.0346,7.0302,7.03,7.0297,7.0295,7.0317,7.032,7.0323,7.0385,0,0,7.0332,7.0333,0,0,0,0,0,0,0,0,7.0265,7.027,7.0305,7.0304,7.0303,7.0318,7.0323,7.0359,7.0302,7.0302,7.0297,7.0294,7.032,7.0322,7.0332,7.0386,7.0387,7.0332,7.0334,7.0335,7.0336,0,0,0,0,0,0,0,7.0263,7.0269,7.0331,7.0306,7.0304,7.0292,7.0294,7.033,7.0323,7.0302,7.0298,7.0302,7.0319,7.0329,7.0332,7.0387,7.0332,7.0334,7.0336,7.0337,7.0493,7.0495,0,0,0,0,0,0,7.0263,7.0267,7.033,7.0332,7.0278,7.0296,7.0298,7.0315,7.0322,7.0321,7.0304,7.03,7.0325,7.0328,7.0332,7.0405,7.0335,7.0338,7.0339,7.0491,7.0494,7.0496,0,0,0,0,0,0,7.0262,7.027,7.0329,7.0299,7.0305,7.03,7.0319,7.0317,7.0327,7.0324,7.0322,7.0316,7.0323,7.0328,7.0372,7.0405,7.0339,7.0341,7.0488,7.0492,7.0495,7.0551,0,0,0,0,0,0,7.0259,7.0269,7.0293,7.03,7.0307,7.037,7.0322,7.0319,7.0333,7.0328,7.0335,7.0334,7.0322,7.0368,7.0375,7.0408,7.0344,7.0485,7.049,7.0494,7.0546,7.0556,7.0564,0,0,0,0,0,7.0256,7.0308,7.0295,7.0303,7.0338,7.0372,7.0376,7.0362,7.0336,7.0359,7.0357,7.0334,7.0401,7.0373,7.0381,7.0414,7.0483,7.0488,7.0494,7.0542,7.0554,7.0564,0,0,0,0,0,0,7.0304,7.0308,7.0294,7.0349,7.0361,7.0364,7.0394,7.0376,7.0394,7.0388,7.037,7.0372,7.0419,7.0422,7.0391,7.0475,7.0437,7.0444,7.0471,7.0483,7.0492,7.0489,7.0346,0,0,0,0,0,7.0322,7.035,7.0352,7.04,7.0407,7.04,7.0414,7.0403,7.0413,7.0417,7.0419,7.0429,7.0452,7.0468,7.049,7.0547,7.0547,7.0574,7.0583,7.0591,7.0596,7.0626,7.0637,7.0514,7.0514,7.0514,0,0,7.0357,7.0362,7.0381,7.041,7.0417,7.0446,7.0404,7.0436,7.0456,7.0422,7.0463,7.0465,7.0475,7.0526,7.0549,7.0529,7.0631,7.0598,7.0604,7.0605,7.0632,7.0644,7.0654,7.0518,7.0517,7.0516,0,0,7.0435,7.0443,7.0484,7.0493,7.0505,7.05,7.051,7.0517,7.0517,7.0558,7.0533,7.0557,7.0598,7.0606,7.0616,7.0699,7.0677,7.0706,7.0753,7.0782,7.0791,7.08,7.0828,7.0838,7.0712,7.0712,7.0713,0,7.0477,7.052,7.0507,7.0541,7.0553,7.0525,7.0565,7.0574,7.0593,7.0602,7.0581,7.0631,7.0637,7.0688,7.0708,7.0718,7.0727,7.0704,7.0791,7.08,7.0807,7.0834,7.0844,7.0716,7.0715,7.0715,7.0715,0,7.057,7.06,7.0632,7.0651,7.0667,7.0705,7.0696,7.0714,7.0702,7.0699,7.0741,7.0747,7.0768,7.078,7.0768,7.083,7.0818,7.0795,7.0756,7.0823,7.0847,7.0857,7.0721,7.0719,7.0718,7.0718,0,0,7.0677,7.069,7.0701,7.0709,7.0722,7.0744,7.078,7.0802,7.0817,7.0832,7.086,7.0896,7.0874,7.0885,7.0874,7.09,7.0963,7.0873,7.0873,7.0888,7.1029,7.1045,7.1057,7.095,7.0951,7.0953,7.1028,0,7.0754,7.0816,7.0805,7.0865,7.0892,7.0866,7.0896,7.0907,7.0905,7.0927,7.0925,7.095,7.0921,7.0927,7.0952,7.095,7.0991,7.0945,7.0974,7.0975,7.0969,7.107,7.1087,7.1157,7.1037,7.1039,7.104,0,7.0851,7.0869,7.0932,7.0939,7.095,7.0978,7.0997,7.1019,7.103,7.1027,7.104,7.1024,7.1059,7.1022,7.1068,7.1037,7.1048,7.1049,7.1052,7.1052,7.101,7.1071,7.1179,7.1189,7.1055,7.1054,7.1053,0,7.092,7.0961,7.1003,7.1011,7.1022,7.1042,7.1047,7.1056,7.107,7.1087,7.1095,7.1116,7.1126,7.1142,7.1132,7.1106,7.1179,7.1142,7.1176,7.1176,7.1191,7.1189,7.13,7.1202,7.1202,7.1202,7.1202,0,7.1005,7.1044,7.1035,7.106,7.1103,7.109,7.1132,7.1134,7.1143,7.1168,7.1147,7.1171,7.1157,7.1179,7.1172,7.121,7.1215,7.1213,7.121,7.1213,7.1213,7.1219,7.1213,7.1205,7.1204,7.1204,7.1203,0,7.1089,7.1085,7.1129,7.1136,7.1138,7.1169,7.1174,7.1198,7.1195,7.1227,7.1234,7.123,7.1255,7.1247,7.1274,7.1269,7.1317,7.1309,7.1314,7.1311,7.1345,7.1341,7.1461,7.1476,7.137,7.1371,7.1372,0,7.1142,7.1172,7.1182,7.1198,7.1205,7.123,7.1245,7.1234,7.1249,7.1264,7.1286,7.1309,7.1327,7.1369,7.1367,7.1388,7.1379,7.142,7.1381,7.1384,7.1377,7.1374,7.1376,7.1426,7.1428,7.1429,7.1429,0,7.1237,7.1234,7.1256,7.1277,7.1295,7.1311,7.1325,7.1339,7.1329,7.1347,7.1373,7.1388,7.1416,7.1439,7.1457,7.1461,7.1443,7.1442,7.1451,7.1453,7.1454,7.1452,7.1332,7.1438,7.1438,7.1437,7.1436,7.1436,7.1306,7.133,7.1341,7.1366,7.1376,7.139,7.1412,7.1413,7.1435,7.1457,7.145,7.1479,7.1489,7.1512,7.1519,7.1541,7.1525,7.1538,7.1541,7.1544,7.1547,7.1452,7.1545,7.1544,7.1544,7.1544,7.1544,0,7.1398,7.1404,7.1427,7.1448,7.1467,7.1451,7.1465,7.1482,7.1509,7.152,7.1539,7.1568,7.1591,7.1592,7.1613,7.163,7.1622,7.1636,7.1633,7.1634,7.1561,7.1551,7.1642,7.1642,7.1642,7.1642,7.1642,7.1641,7.1448,7.1488,7.1486,7.153,7.1536,7.1565,7.1575,7.1587,7.1596,7.163,7.1649,7.165,7.1657,7.1678,7.1697,7.1697,7.1705,7.1721,7.1717,7.1649,7.1639,7.163,7.162,7.1723,7.1723,7.1788,7.1788,7.1789]}]]